This demonstration page uses our WeatherBlox Daily Observations layout. Learn more.

Left ArrowRight Arrow

Hourly Observations for February 28, 2021

Temp ( °F °C ) Dew Point ( °F °C ) Humidity (%) Winds ( mph kmh ) Pressure ( in mb ) Visibility ( mi km ) Precip ( " mm )
12:53 am 00:53 Clear 8 -13.3 3 -16.1 80 80 Calm 30.10 1019 10 16 0.00 0.00
1:53 am 01:53 Clear 8 -13.3 4 -15.6 83 83 ENE 3 6 30.08 1019 10 16 0.00 0.00
2:53 am 02:53 Clear 9 -12.8 4 -15.6 80 80 Calm 30.06 1018 10 16 0.00 0.00
3:53 am 03:53 Clear 18 -7.8 11 -11.7 74 74 SW 13 20 30.03 1017 10 16 0.00 0.00
4:53 am 04:53 Clear 19 -7.2 11 -11.7 71 71 SW 18 30 30.01 1016 10 16 0.00 0.00
5:53 am 05:53 Clear 20 -6.7 12 -11.1 71 71 SW 20 31 30.00 1016 10 16 0.00 0.00
6:53 am 06:53 Mostly Cloudy 21 -6.1 12 -11.1 68 68 SW 23 37 30.00 1016 10 16 0.00 0.00
7:53 am 07:53 Sunny 23 -5 13 -10.6 65 65 SW 23 37 29.98 1015 10 16 0.00 0.00
8:53 am 08:53 Sunny 25 -3.9 15 -9.4 66 66 SW 28 44 29.98 1015 10 16 0.00 0.00
9:53 am 09:53 Sunny 29 -1.7 17 -8.3 61 61 SW 23 37 29.98 1015 10 16 0.00 0.00
10:53 am 10:53 Sunny 32 0 20 -6.7 61 61 SW 22 35 29.98 1015 10 16 0.00 0.00
11:53 am 11:53 Sunny 36 2.2 22 -5.6 57 57 WSW 21 33 29.98 1015 10 16 0.00 0.00
12:53 pm 12:53 Sunny 38 3.3 25 -3.9 60 60 W 21 33 29.97 1015 10 16 0.00 0.00
1:53 pm 13:53 Sunny 40 4.4 25 -3.9 55 55 W 20 31 29.97 1015 10 16 0.00 0.00
2:53 pm 14:53 Sunny 41 5 26 -3.3 55 55 W 17 28 29.98 1015 10 16 0.00 0.00
3:53 pm 15:53 Sunny 42 5.6 26 -3.3 53 53 W 15 24 29.97 1015 10 16 0.00 0.00
4:53 pm 16:53 Sunny 41 5 27 -2.8 57 57 W 15 24 29.98 1015 10 16 0.00 0.00
5:53 pm 17:53 Sunny 36 2.2 29 -1.7 76 76 WSW 10 17 30.02 1017 10 16 0.00 0.00
6:53 pm 18:53 Clear 34 1.1 28 -2.2 79 79 WSW 12 19 30.03 1017 10 16 0.00 0.00
7:53 pm 19:53 Clear 33 0.6 27 -2.8 78 78 SW 14 22 30.06 1018 10 16 0.00 0.00
8:53 pm 20:53 Cloudy 34 1.1 27 -2.8 76 76 SW 14 22 30.07 1018 10 16 0.00 0.00
9:53 pm 21:53 Clear 35 1.7 27 -2.8 72 72 SW 20 31 30.05 1018 10 16 0.00 0.00
10:53 pm 22:53 Clear 35 1.7 26 -3.3 70 70 SW 23 37 30.06 1018 10 16 0.00 0.00
11:53 pm 23:53 Clear 35 1.7 25 -3.9 67 67 SW 24 39 30.05 1018 10 16 0.00 0.00

Powered by AerisWeather